Weather History for Somerville, NJ

Change the Weather History Date:

Friday, June 13, 2014

  Actual Average Record
Temperature  
Mean Temperature 75 °F -  
Max Temperature 84 °F 79 °F 93 °F (1957)
Min Temperature 66 °F 55 °F 41 °F (1979)
Cooling Degree Days 10    
Growing Degree Days 25 (Base 50)    
Moisture  
Dew Point 67 °F    
Average Humidity 88    
Maximum Humidity 96    
Minimum Humidity 63    
Precipitation  
Precipitation 0.58 in - - ()
Sea Level Pressure  
Sea Level Pressure 29.79 in    
Wind  
Wind Speed 1 mph (SSE)    
Max Wind Speed 10 mph    
Max Gust Speed 18 mph    
Visibility 6 miles    
Events Rain , Thunderstorm    
Averages and records for this station are not official NWS values.
T = Trace of Precipitation, MM = Missing Value Source: NWS Daily Summary

Daily Weather History Graph

Daily Weather History Graph

Search for Another Location

Airport:

Trip Planner

Search our weather history database for the weather conditions in past years. The results will help you decide how hot, cold, wet, or windy it might be!

Date:

Astronomy

Jun. 13, 2014 Rise Set
Actual Time 5:27 AM EDT 8:30 PM EDT
Civil Twilight 4:53 AM EDT 9:03 PM EDT
Nautical Twilight 4:11 AM EDT 9:46 PM EDT
Astronomical Twilight 3:22 AM EDT 10:35 PM EDT
Moon 8:58 PM EDT (6/13) 6:04 AM EDT (6/13)
Length of Visible Light 16h 09m
Length of Day
15h 03m
Full, 100% of the Moon is Illuminated
Jun 13
Full
Jun 19
Last Quarter
Jun 27
New
Jul 5
First Quarter
Jul 12
Full

Hourly Weather History & Observations

Time (EDT) Temp. Heat Index Dew Point Humidity Pressure Visibility Wind Dir Wind Speed Gust Speed Precip Events Conditions
12:53 AM 68.0 °F - 66.0 °F 93% 29.88 in 10.0 mi Calm Calm - 0.00 in   Overcast
1:53 AM 68.0 °F - 66.0 °F 93% 29.86 in 9.0 mi Calm Calm - 0.00 in   Overcast
2:53 AM 68.0 °F - 66.0 °F 93% 29.85 in 9.0 mi Calm Calm - 0.00 in Rain Light Rain
3:53 AM 68.0 °F - 66.0 °F 93% 29.83 in 3.0 mi Variable 3.5 mph - 0.02 in Rain Light Rain
4:03 AM 68.0 °F - 66.0 °F 93% 29.83 in 3.0 mi Calm Calm - 0.02 in Rain Rain
4:33 AM 68.0 °F - 66.0 °F 93% 29.82 in 4.0 mi Calm Calm - 0.08 in Rain Light Rain
4:53 AM 68.0 °F - 66.0 °F 93% 29.81 in 4.0 mi Calm Calm - 0.11 in Rain Light Rain
5:27 AM 68.0 °F - 66.0 °F 93% 29.80 in 10.0 mi Calm Calm - 0.02 in   Overcast
5:53 AM 68.0 °F - 66.0 °F 93% 29.81 in 5.0 mi Calm Calm - 0.04 in Rain Light Rain
6:03 AM 68.0 °F - 66.2 °F 94% 29.81 in 4.0 mi Calm Calm - N/A Rain Light Rain
6:53 AM 68.0 °F - 66.0 °F 93% 29.81 in 8.0 mi SSE 3.5 mph - 0.01 in Rain Light Rain
7:03 AM 68.0 °F - 66.0 °F 93% 29.81 in 2.0 mi Calm Calm - 0.03 in Rain Light Rain
7:12 AM 68.0 °F - 66.0 °F 93% 29.81 in 6.0 mi Calm Calm - 0.03 in   Overcast
7:24 AM 68.0 °F - 66.0 °F 93% 29.81 in 1.5 mi Calm Calm - 0.09 in Rain Heavy Rain
7:34 AM 68.0 °F - 66.0 °F 93% 29.81 in 0.8 mi Calm Calm - 0.23 in Rain Heavy Rain
7:43 AM 68.0 °F - 66.0 °F 93% 29.81 in 2.0 mi Calm Calm - 0.26 in Rain Light Rain
7:53 AM 68.0 °F - 66.9 °F 96% 29.81 in 2.5 mi SE 3.5 mph - 0.29 in Rain Light Rain
8:00 AM 68.0 °F - 66.0 °F 93% 29.81 in 6.0 mi SSE 5.8 mph - 0.00 in Rain Light Rain
8:19 AM 68.0 °F - 66.0 °F 93% 29.81 in 2.5 mi South 5.8 mph - 0.03 in Rain Rain
8:29 AM 68.0 °F - 66.0 °F 93% 29.81 in 1.2 mi Calm Calm - 0.10 in Rain Heavy Rain
8:37 AM 68.0 °F - 66.0 °F 93% 29.81 in 3.0 mi SSE 4.6 mph - 0.10 in Rain Light Rain
8:53 AM 68.0 °F - 66.0 °F 93% 29.81 in 6.0 mi SE 3.5 mph - 0.11 in Rain Light Rain
9:05 AM 69.1 °F - 66.0 °F 90% 29.81 in 10.0 mi Calm Calm - 0.00 in Rain Light Rain
9:14 AM 70.0 °F - 66.9 °F 90% 29.81 in 10.0 mi Calm Calm - 0.00 in   Overcast
9:29 AM 69.1 °F - 66.0 °F 90% 29.81 in 9.0 mi Calm Calm - 0.00 in Rain Light Rain
9:53 AM 70.0 °F - 66.9 °F 90% 29.81 in 7.0 mi Calm Calm - 0.00 in   Overcast
10:01 AM 70.0 °F - 66.9 °F 90% 29.81 in 5.0 mi Calm Calm - N/A   Overcast
10:24 AM 71.1 °F - 68.0 °F 90% 29.81 in 2.0 mi Calm Calm - 0.00 in   Overcast
10:51 AM 71.6 °F - 68.0 °F 88% 29.81 in 5.0 mi Calm Calm - 0.00 in   Overcast
10:53 AM 71.6 °F - 68.0 °F 88% 29.81 in 5.0 mi Calm Calm - N/A   Overcast
11:53 AM 73.9 °F - 70.0 °F 87% 29.80 in 9.0 mi Calm Calm - N/A   Overcast
12:12 PM 75.0 °F - 70.0 °F 84% 29.80 in 10.0 mi Calm Calm - N/A   Overcast
12:19 PM 75.0 °F - 70.0 °F 84% 29.79 in 10.0 mi Calm Calm - N/A   Overcast
12:46 PM 77.0 °F - 70.0 °F 79% 29.78 in 10.0 mi Variable 3.5 mph - N/A   Overcast
12:53 PM 78.8 °F - 71.6 °F 78% 29.78 in 10.0 mi South 3.5 mph - N/A   Mostly Cloudy
1:04 PM 79.0 °F - 70.0 °F 74% 29.77 in 10.0 mi SSE 3.5 mph - N/A   Scattered Clouds
1:53 PM 80.1 °F 83.2 °F 70.0 °F 71% 29.75 in 10.0 mi Calm Calm - N/A   Mostly Cloudy
2:28 PM 82.0 °F 85.5 °F 69.1 °F 65% 29.73 in 10.0 mi East 5.8 mph - N/A   Scattered Clouds
2:53 PM 82.9 °F 87.5 °F 71.1 °F 67% 29.72 in 10.0 mi South 8.1 mph - N/A   Scattered Clouds
3:53 PM 84.0 °F 88.4 °F 70.0 °F 63% 29.69 in 10.0 mi Variable 4.6 mph - N/A   Scattered Clouds
4:04 PM 81.0 °F 84.1 °F 69.1 °F 67% 29.69 in 10.0 mi Variable 5.8 mph - N/A Thunderstorm Mostly Cloudy
4:13 PM 80.1 °F 82.7 °F 68.0 °F 67% 29.70 in 9.0 mi SSW 5.8 mph - 0.00 in Rain , Thunderstorm Light Thunderstorms and Rain
4:33 PM 69.1 °F - 64.9 °F 87% 29.72 in 0.8 mi WNW 10.4 mph 18.4 mph 0.19 in Rain , Thunderstorm Heavy Thunderstorms and Rain
4:53 PM 69.8 °F - 66.2 °F 88% 29.72 in 3.0 mi Calm Calm - N/A Rain , Thunderstorm Light Thunderstorms and Rain
6:53 PM 69.8 °F - 68.0 °F 94% 29.75 in 10.0 mi Calm Calm - N/A   Clear
7:53 PM 70.0 °F - 66.9 °F 90% 29.77 in 10.0 mi Calm Calm - N/A   Clear
8:53 PM 69.1 °F - 66.9 °F 93% 29.76 in 7.0 mi Calm Calm - N/A   Scattered Clouds
9:20 PM 69.1 °F - 66.9 °F 93% 29.77 in 7.0 mi Calm Calm - N/A   Partly Cloudy
9:53 PM 68.0 °F - 66.0 °F 93% 29.78 in 7.0 mi Calm Calm - N/A   Mostly Cloudy
10:10 PM 68.0 °F - 66.0 °F 93% 29.77 in 6.0 mi Calm Calm - N/A   Mostly Cloudy
10:36 PM 66.9 °F - 64.9 °F 93% 29.78 in 1.8 mi Calm Calm - N/A   Scattered Clouds
10:53 PM 66.9 °F - 64.9 °F 93% 29.78 in 1.0 mi Calm Calm - N/A   Mostly Cloudy
11:19 PM 66.9 °F - 64.9 °F 93% 29.79 in 3.0 mi Calm Calm - N/A   Mostly Cloudy
11:35 PM 66.9 °F - 64.9 °F 93% 29.79 in 1.5 mi Calm Calm - N/A   Overcast
11:45 PM 66.9 °F - 64.9 °F 93% 29.79 in 3.0 mi Calm Calm - N/A   Overcast
11:53 PM 68.0 °F - 64.9 °F 90% 29.79 in 6.0 mi NNW 3.5 mph - N/A   Overcast